Time,TemperatureF,DewpointF,PressureIn,WindDirection,WindDirectionDegrees,WindSpeedMPH,WindSpeedGustMPH,Humidity,HourlyPrecipIn,Conditions,Clouds,dailyrainin,SoftwareType,DateUTC
2013-02-02 00:02:00,17.1,3.7,30.38,NW,315,4.0,7.0,55,0.00,,,0.00,meteohub,2013-02-02 05:02:00,
2013-02-02 00:12:00,17.1,3.7,30.38,WNW,292,2.0,9.0,55,0.00,,,0.00,meteohub,2013-02-02 05:12:00,
2013-02-02 00:22:00,17.1,3.7,30.38,NW,315,2.0,9.0,55,0.00,,,0.00,meteohub,2013-02-02 05:22:00,
2013-02-02 00:32:00,17.1,2.8,30.38,West,270,5.0,9.0,53,0.00,,,0.00,meteohub,2013-02-02 05:32:00,
2013-02-02 00:42:00,17.1,3.2,30.38,NW,315,5.0,14.0,54,0.00,,,0.00,meteohub,2013-02-02 05:42:00,
2013-02-02 00:52:00,17.1,2.8,30.38,NW,315,7.0,12.0,53,0.00,,,0.00,meteohub,2013-02-02 05:52:00,
2013-02-02 01:02:00,17.1,3.2,30.37,NW,315,2.0,12.0,54,0.00,,,0.00,meteohub,2013-02-02 06:02:00,
2013-02-02 01:12:00,16.0,2.7,30.37,NW,315,4.0,9.0,55,0.00,,,0.00,meteohub,2013-02-02 06:12:00,
2013-02-02 01:22:00,16.0,2.7,30.37,WNW,292,4.0,11.0,55,0.00,,,0.00,meteohub,2013-02-02 06:22:00,
2013-02-02 01:32:00,16.0,2.7,30.36,NW,315,6.0,10.0,55,0.00,,,0.00,meteohub,2013-02-02 06:32:00,
2013-02-02 01:42:00,16.0,2.7,30.36,NW,315,4.0,8.0,55,0.00,,,0.00,meteohub,2013-02-02 06:42:00,
2013-02-02 01:52:00,16.0,3.0,30.36,NW,315,2.0,8.0,56,0.00,,,0.00,meteohub,2013-02-02 06:52:00,
2013-02-02 02:02:00,16.0,3.0,30.36,NW,315,2.0,10.0,56,0.00,,,0.00,meteohub,2013-02-02 07:02:00,
2013-02-02 02:12:00,16.0,3.4,30.36,NW,315,2.0,5.0,57,0.00,,,0.00,meteohub,2013-02-02 07:12:00,
2013-02-02 02:22:00,16.0,3.7,30.36,NNW,337,4.0,7.0,58,0.00,,,0.00,meteohub,2013-02-02 07:22:00,
2013-02-02 02:32:00,16.0,4.1,30.36,NW,315,1.0,7.0,59,0.00,,,0.00,meteohub,2013-02-02 07:32:00,
2013-02-02 02:42:00,16.0,4.1,30.36,NW,315,2.0,7.0,59,0.00,,,0.00,meteohub,2013-02-02 07:42:00,
2013-02-02 02:52:00,15.1,3.7,30.36,NW,315,0.0,2.0,60,0.00,,,0.00,meteohub,2013-02-02 07:52:00,
2013-02-02 03:02:00,15.1,4.1,30.35,NW,315,2.0,2.0,61,0.00,,,0.00,meteohub,2013-02-02 08:02:00,
2013-02-02 03:12:00,15.1,4.5,30.35,North,0,0.0,3.0,62,0.00,,,0.00,meteohub,2013-02-02 08:12:00,
2013-02-02 03:22:00,15.1,4.8,30.35,North,0,0.0,3.0,63,0.00,,,0.00,meteohub,2013-02-02 08:22:00,
2013-02-02 03:32:00,14.0,4.1,30.35,North,0,0.0,2.0,64,0.00,,,0.00,meteohub,2013-02-02 08:32:00,
2013-02-02 03:42:00,14.0,4.5,30.35,North,0,0.0,2.0,65,0.00,,,0.00,meteohub,2013-02-02 08:42:00,
2013-02-02 03:52:00,14.0,4.5,30.35,North,0,1.0,2.0,65,0.00,,,0.00,meteohub,2013-02-02 08:52:00,
2013-02-02 04:02:00,14.0,4.8,30.34,North,0,2.0,2.0,66,0.00,,,0.00,meteohub,2013-02-02 09:02:00,
2013-02-02 04:12:00,14.0,4.8,30.34,NNW,337,1.0,2.0,66,0.00,,,0.00,meteohub,2013-02-02 09:12:00,
2013-02-02 04:22:00,14.0,4.8,30.34,NNW,337,2.0,2.0,66,0.00,,,0.00,meteohub,2013-02-02 09:22:00,
2013-02-02 04:32:00,14.0,4.5,30.34,NNW,337,0.0,2.0,65,0.00,,,0.00,meteohub,2013-02-02 09:32:00,
2013-02-02 04:42:00,14.0,4.5,30.34,NNW,337,0.0,2.0,65,0.00,,,0.00,meteohub,2013-02-02 09:42:00,
2013-02-02 04:52:00,14.0,4.8,30.34,NNW,337,1.0,2.0,66,0.00,,,0.00,meteohub,2013-02-02 09:52:00,
2013-02-02 05:02:00,14.0,4.5,30.35,NNW,337,0.0,2.0,65,0.00,,,0.00,meteohub,2013-02-02 10:02:00,
2013-02-02 05:12:00,14.0,4.8,30.35,NNW,337,0.0,2.0,66,0.00,,,0.00,meteohub,2013-02-02 10:12:00,
2013-02-02 05:22:00,14.0,5.0,30.34,NNW,337,0.0,0.0,67,0.00,,,0.00,meteohub,2013-02-02 10:22:00,
2013-02-02 05:32:00,14.0,5.4,30.34,NNW,337,0.0,0.0,68,0.00,,,0.00,meteohub,2013-02-02 10:32:00,
2013-02-02 05:42:00,14.0,5.7,30.34,NNW,337,0.0,0.0,69,0.00,,,0.00,meteohub,2013-02-02 10:42:00,
2013-02-02 05:52:00,14.0,6.1,30.34,NNW,337,0.0,0.0,70,0.00,,,0.00,meteohub,2013-02-02 10:52:00,
2013-02-02 06:02:00,14.0,6.3,30.33,NNW,337,0.0,0.0,71,0.00,,,0.00,meteohub,2013-02-02 11:02:00,
2013-02-02 06:12:00,12.9,5.9,30.33,NNW,337,0.0,0.0,73,0.00,,,0.00,meteohub,2013-02-02 11:12:00,
2013-02-02 06:22:00,12.9,5.5,30.33,NNW,337,0.0,0.0,72,0.00,,,0.00,meteohub,2013-02-02 11:22:00,
2013-02-02 06:32:00,12.9,6.4,30.33,NNW,337,0.0,0.0,75,0.00,,,0.00,meteohub,2013-02-02 11:32:00,
2013-02-02 06:42:00,12.9,6.8,30.33,NNW,337,0.0,0.0,76,0.00,,,0.00,meteohub,2013-02-02 11:42:00,
2013-02-02 06:52:00,12.9,7.2,30.33,NNW,337,0.0,0.0,77,0.00,,,0.00,meteohub,2013-02-02 11:52:00,
2013-02-02 07:02:00,14.0,8.4,30.34,NNW,337,0.0,0.0,78,0.00,,,0.00,meteohub,2013-02-02 12:02:00,
2013-02-02 07:12:00,14.0,7.9,30.34,NNW,337,0.0,0.0,76,0.00,,,0.00,meteohub,2013-02-02 12:12:00,
2013-02-02 07:22:00,14.0,8.4,30.34,NNW,337,0.0,0.0,78,0.00,,,0.00,meteohub,2013-02-02 12:22:00,
2013-02-02 07:32:00,14.0,8.8,30.34,NNW,337,0.0,0.0,79,0.00,,,0.00,meteohub,2013-02-02 12:32:00,
2013-02-02 07:42:00,14.0,9.0,30.34,NNW,337,0.0,0.0,80,0.00,,,0.00,meteohub,2013-02-02 12:42:00,
2013-02-02 07:52:00,14.0,8.8,30.35,NNW,337,0.0,0.0,79,0.00,,,0.00,meteohub,2013-02-02 12:52:00,
2013-02-02 08:02:00,14.0,8.1,30.35,NNW,337,0.0,0.0,77,0.00,,,0.00,meteohub,2013-02-02 13:02:00,
2013-02-02 08:12:00,15.1,7.0,30.35,SW,225,2.0,2.0,70,0.00,,,0.00,meteohub,2013-02-02 13:12:00,
2013-02-02 08:22:00,16.0,7.0,30.35,SSW,202,2.0,2.0,67,0.00,,,0.00,meteohub,2013-02-02 13:22:00,
2013-02-02 08:32:00,17.1,5.9,30.34,SE,135,2.0,2.0,61,0.00,,,0.00,meteohub,2013-02-02 13:32:00,
2013-02-02 08:42:00,18.0,5.0,30.34,SW,225,1.0,3.0,56,0.00,,,0.00,meteohub,2013-02-02 13:42:00,
2013-02-02 08:52:00,19.0,5.5,30.34,South,180,2.0,4.0,55,0.00,,,0.00,meteohub,2013-02-02 13:52:00,
2013-02-02 09:02:00,19.9,5.5,30.34,SW,225,2.0,4.0,53,0.00,,,0.00,meteohub,2013-02-02 14:02:00,
2013-02-02 09:12:00,19.9,5.2,30.34,South,180,1.0,4.0,52,0.00,,,0.00,meteohub,2013-02-02 14:12:00,
2013-02-02 09:22:00,21.0,5.4,30.33,South,180,2.0,6.0,50,0.00,,,0.00,meteohub,2013-02-02 14:22:00,
2013-02-02 09:32:00,21.9,5.2,30.33,SSW,202,1.0,4.0,48,0.00,,,0.00,meteohub,2013-02-02 14:32:00,
2013-02-02 09:42:00,21.9,4.8,30.33,SW,225,2.0,4.0,47,0.00,,,0.00,meteohub,2013-02-02 14:42:00,
2013-02-02 09:52:00,21.9,5.2,30.33,South,180,2.0,6.0,48,0.00,,,0.00,meteohub,2013-02-02 14:52:00,
2013-02-02 10:02:00,23.0,5.7,30.33,South,180,2.0,4.0,47,0.00,,,0.00,meteohub,2013-02-02 15:02:00,
2013-02-02 10:12:00,23.0,5.4,30.33,SW,225,2.0,5.0,46,0.00,,,0.00,meteohub,2013-02-02 15:12:00,
2013-02-02 10:22:00,23.0,5.4,30.32,SE,135,2.0,6.0,46,0.00,,,0.00,meteohub,2013-02-02 15:22:00,
2013-02-02 10:32:00,24.1,5.4,30.32,South,180,2.0,4.0,44,0.00,,,0.00,meteohub,2013-02-02 15:32:00,
2013-02-02 10:42:00,24.1,5.4,30.33,West,270,1.0,6.0,44,0.00,,,0.00,meteohub,2013-02-02 15:42:00,
2013-02-02 10:52:00,25.0,6.1,30.32,South,180,2.0,6.0,44,0.00,,,0.00,meteohub,2013-02-02 15:52:00,
2013-02-02 11:02:00,25.0,4.6,30.32,SW,225,4.0,5.0,41,0.00,,,0.00,meteohub,2013-02-02 16:02:00,
2013-02-02 11:12:00,25.0,5.7,30.32,SSW,202,2.0,5.0,43,0.00,,,0.00,meteohub,2013-02-02 16:12:00,
2013-02-02 11:22:00,25.0,4.6,30.31,SW,225,1.0,6.0,41,0.00,,,0.00,meteohub,2013-02-02 16:22:00,
2013-02-02 11:32:00,25.0,4.6,30.31,SW,225,4.0,6.0,41,0.00,,,0.00,meteohub,2013-02-02 16:32:00,
2013-02-02 11:42:00,26.1,6.1,30.30,South,180,1.0,6.0,42,0.00,,,0.00,meteohub,2013-02-02 16:42:00,
2013-02-02 11:52:00,26.1,6.1,30.28,South,180,0.0,6.0,42,0.00,,,0.00,meteohub,2013-02-02 16:52:00,
2013-02-02 12:02:00,26.1,5.0,30.28,South,180,2.0,6.0,40,0.00,,,0.00,meteohub,2013-02-02 17:02:00,
2013-02-02 12:12:00,26.1,6.1,30.27,SSE,157,1.0,6.0,42,0.00,,,0.00,meteohub,2013-02-02 17:12:00,
2013-02-02 12:22:00,26.1,7.7,30.26,South,180,2.0,9.0,45,0.00,,,0.00,meteohub,2013-02-02 17:22:00,
2013-02-02 12:32:00,26.1,10.8,30.26,SW,225,2.0,6.0,52,0.00,,,0.00,meteohub,2013-02-02 17:32:00,
2013-02-02 12:42:00,25.0,9.9,30.26,SW,225,2.0,6.0,52,0.00,,,0.00,meteohub,2013-02-02 17:42:00,
2013-02-02 12:52:00,26.1,11.7,30.25,South,180,3.0,6.0,54,0.00,,,0.00,meteohub,2013-02-02 17:52:00,
2013-02-02 13:02:00,25.0,11.8,30.25,South,180,2.0,6.0,57,0.00,,,0.00,meteohub,2013-02-02 18:02:00,
2013-02-02 13:12:00,25.0,13.1,30.23,South,180,2.0,6.0,60,0.00,,,0.00,meteohub,2013-02-02 18:12:00,
2013-02-02 13:22:00,25.0,14.2,30.23,South,180,2.0,6.0,63,0.00,,,0.00,meteohub,2013-02-02 18:22:00,
2013-02-02 13:32:00,25.0,15.6,30.22,SE,135,2.0,6.0,67,0.00,,,0.00,meteohub,2013-02-02 18:32:00,
2013-02-02 13:42:00,25.0,17.2,30.22,SSW,202,2.0,7.0,72,0.00,,,0.00,meteohub,2013-02-02 18:42:00,
2013-02-02 13:52:00,25.0,17.2,30.21,South,180,0.0,6.0,72,0.00,,,0.00,meteohub,2013-02-02 18:52:00,
2013-02-02 14:02:00,26.1,17.2,30.21,South,180,1.0,4.0,69,0.00,,,0.00,meteohub,2013-02-02 19:02:00,
2013-02-02 14:12:00,26.1,16.7,30.20,SW,225,1.0,2.0,67,0.00,,,0.00,meteohub,2013-02-02 19:12:00,
2013-02-02 14:22:00,26.1,16.3,30.18,SE,135,2.0,4.0,66,0.00,,,0.00,meteohub,2013-02-02 19:22:00,
2013-02-02 14:32:00,26.1,16.0,30.18,SE,135,1.0,4.0,65,0.00,,,0.00,meteohub,2013-02-02 19:32:00,
2013-02-02 14:42:00,27.0,14.2,30.18,SE,135,2.0,4.0,58,0.00,,,0.00,meteohub,2013-02-02 19:42:00,
2013-02-02 14:52:00,27.0,13.8,30.18,South,180,2.0,4.0,57,0.00,,,0.00,meteohub,2013-02-02 19:52:00,
2013-02-02 15:02:00,27.0,12.6,30.17,South,180,2.0,4.0,54,0.00,,,0.00,meteohub,2013-02-02 20:02:00,
2013-02-02 15:12:00,28.0,12.2,30.17,South,180,2.0,4.0,51,0.00,,,0.00,meteohub,2013-02-02 20:12:00,
2013-02-02 15:22:00,28.0,11.8,30.16,South,180,2.0,5.0,50,0.00,,,0.00,meteohub,2013-02-02 20:22:00,
2013-02-02 15:32:00,28.9,11.7,30.16,SSW,202,2.0,6.0,48,0.00,,,0.00,meteohub,2013-02-02 20:32:00,
2013-02-02 15:42:00,28.9,12.2,30.15,SE,135,1.0,8.0,49,0.00,,,0.00,meteohub,2013-02-02 20:42:00,
2013-02-02 15:52:00,28.9,11.3,30.15,South,180,2.0,7.0,47,0.00,,,0.00,meteohub,2013-02-02 20:52:00,
2013-02-02 16:02:00,28.9,10.8,30.15,SSW,202,2.0,6.0,46,0.00,,,0.00,meteohub,2013-02-02 21:02:00,
2013-02-02 16:12:00,28.9,11.3,30.15,South,180,3.0,9.0,47,0.00,,,0.00,meteohub,2013-02-02 21:12:00,
2013-02-02 16:22:00,28.9,11.7,30.15,WSW,247,2.0,9.0,48,0.00,,,0.00,meteohub,2013-02-02 21:22:00,
2013-02-02 16:32:00,30.0,12.7,30.14,South,180,2.0,6.0,48,0.00,,,0.00,meteohub,2013-02-02 21:32:00,
2013-02-02 16:42:00,28.9,11.3,30.13,SSE,157,2.0,7.0,47,0.00,,,0.00,meteohub,2013-02-02 21:42:00,
2013-02-02 16:52:00,28.9,14.7,30.11,South,180,2.0,7.0,55,0.00,,,0.00,meteohub,2013-02-02 21:52:00,
2013-02-02 17:02:00,28.0,17.8,30.11,South,180,1.0,11.0,65,0.00,,,0.00,meteohub,2013-02-02 22:02:00,
2013-02-02 17:12:00,27.0,19.8,30.11,SSW,202,6.0,11.0,74,0.00,,,0.00,meteohub,2013-02-02 22:12:00,
2013-02-02 17:22:00,26.1,22.6,30.11,WSW,247,1.0,9.0,87,0.00,,,0.00,meteohub,2013-02-02 22:22:00,
2013-02-02 17:32:00,26.1,23.7,30.12,South,180,1.0,9.0,91,0.00,,,0.00,meteohub,2013-02-02 22:32:00,
2013-02-02 17:42:00,25.0,23.5,30.11,SSW,202,2.0,6.0,94,0.00,,,0.00,meteohub,2013-02-02 22:42:00,
2013-02-02 17:52:00,25.0,23.5,30.11,South,180,2.0,5.0,94,0.00,,,0.00,meteohub,2013-02-02 22:52:00,
2013-02-02 18:02:00,25.0,23.5,30.11,SSW,202,1.0,2.0,94,0.00,,,0.00,meteohub,2013-02-02 23:02:00,
2013-02-02 18:12:00,25.0,23.5,30.11,SSW,202,1.0,2.0,94,0.00,,,0.00,meteohub,2013-02-02 23:12:00,
2013-02-02 18:22:00,25.0,23.5,30.11,South,180,2.0,2.0,94,0.00,,,0.00,meteohub,2013-02-02 23:22:00,
2013-02-02 18:32:00,25.0,23.5,30.10,South,180,2.0,4.0,94,0.00,,,0.00,meteohub,2013-02-02 23:32:00,
2013-02-02 18:42:00,25.0,23.5,30.10,SSE,157,2.0,4.0,94,0.00,,,0.00,meteohub,2013-02-02 23:42:00,
2013-02-02 18:52:00,25.0,23.5,30.11,SE,135,2.0,3.0,94,0.00,,,0.00,meteohub,2013-02-02 23:52:00,
2013-02-02 19:02:00,26.1,24.6,30.10,South,180,1.0,3.0,94,0.00,,,0.00,meteohub,2013-02-03 00:02:00,
2013-02-02 19:12:00,26.1,24.6,30.10,South,180,1.0,2.0,94,0.00,,,0.00,meteohub,2013-02-03 00:12:00,
2013-02-02 19:22:00,26.1,24.6,30.10,South,180,2.0,3.0,94,0.00,,,0.00,meteohub,2013-02-03 00:22:00,
2013-02-02 19:32:00,26.1,24.6,30.10,South,180,1.0,3.0,94,0.00,,,0.00,meteohub,2013-02-03 00:32:00,
2013-02-02 19:42:00,26.1,24.6,30.09,South,180,1.0,2.0,94,0.00,,,0.00,meteohub,2013-02-03 00:42:00,
2013-02-02 19:52:00,26.1,24.6,30.09,South,180,2.0,4.0,94,0.00,,,0.00,meteohub,2013-02-03 00:52:00,
2013-02-02 20:02:00,26.1,24.6,30.09,South,180,0.0,4.0,94,0.00,,,0.00,meteohub,2013-02-03 01:02:00,
2013-02-02 20:12:00,26.1,24.6,30.08,South,180,1.0,4.0,94,0.00,,,0.00,meteohub,2013-02-03 01:12:00,
2013-02-02 20:22:00,26.1,24.6,30.08,South,180,1.0,6.0,94,0.00,,,0.00,meteohub,2013-02-03 01:22:00,
2013-02-02 20:32:00,26.1,24.6,30.07,South,180,3.0,3.0,94,0.00,,,0.00,meteohub,2013-02-03 01:32:00,
2013-02-02 20:42:00,26.1,24.6,30.07,South,180,1.0,4.0,94,0.00,,,0.00,meteohub,2013-02-03 01:42:00,
2013-02-02 20:52:00,26.1,24.6,30.06,South,180,2.0,4.0,94,0.00,,,0.00,meteohub,2013-02-03 01:52:00,
2013-02-02 21:02:00,27.0,25.5,30.06,South,180,1.0,3.0,94,0.00,,,0.00,meteohub,2013-02-03 02:02:00,
2013-02-02 21:12:00,27.0,25.5,30.05,South,180,1.0,3.0,94,0.00,,,0.00,meteohub,2013-02-03 02:12:00,
2013-02-02 21:22:00,27.0,25.5,30.05,SSW,202,2.0,3.0,94,0.00,,,0.00,meteohub,2013-02-03 02:22:00,
2013-02-02 21:32:00,27.0,25.5,30.05,SSW,202,2.0,5.0,94,0.00,,,0.00,meteohub,2013-02-03 02:32:00,
2013-02-02 21:42:00,27.0,25.5,30.05,South,180,1.0,5.0,94,0.00,,,0.00,meteohub,2013-02-03 02:42:00,
2013-02-02 21:52:00,27.0,25.5,30.05,South,180,2.0,3.0,94,0.00,,,0.00,meteohub,2013-02-03 02:52:00,
2013-02-02 22:02:00,27.0,25.5,30.04,South,180,1.0,4.0,94,0.00,,,0.00,meteohub,2013-02-03 03:02:00,
2013-02-02 22:12:00,27.0,25.5,30.04,SW,225,2.0,4.0,94,0.00,,,0.00,meteohub,2013-02-03 03:12:00,
2013-02-02 22:22:00,27.0,25.5,30.04,SSE,157,1.0,4.0,94,0.00,,,0.00,meteohub,2013-02-03 03:22:00,
2013-02-02 22:32:00,27.0,25.5,30.03,South,180,2.0,4.0,94,0.00,,,0.00,meteohub,2013-02-03 03:32:00,
2013-02-02 22:42:00,27.0,25.5,30.04,South,180,1.0,2.0,94,0.00,,,0.00,meteohub,2013-02-03 03:42:00,
2013-02-02 22:52:00,27.0,25.5,30.03,South,180,1.0,2.0,94,0.00,,,0.00,meteohub,2013-02-03 03:52:00,
2013-02-02 23:02:00,27.0,25.5,30.03,SSE,157,1.0,2.0,94,0.00,,,0.00,meteohub,2013-02-03 04:02:00,
2013-02-02 23:12:00,27.0,25.5,30.03,South,180,2.0,2.0,94,0.00,,,0.00,meteohub,2013-02-03 04:12:00,
2013-02-02 23:22:00,27.0,25.5,30.03,SE,135,0.0,2.0,94,0.00,,,0.00,meteohub,2013-02-03 04:22:00,
2013-02-02 23:32:00,27.0,25.5,30.03,SE,135,0.0,0.0,94,0.00,,,0.00,meteohub,2013-02-03 04:32:00,
2013-02-02 23:42:00,27.0,25.5,30.03,SE,135,0.0,2.0,94,0.00,,,0.00,meteohub,2013-02-03 04:42:00,
2013-02-02 23:52:00,27.0,25.5,30.03,SW,225,0.0,2.0,94,0.00,,,0.00,meteohub,2013-02-03 04:52:00,